| time (UTC) | temp F | wind direction | speed knots | gust knots | rain 1hr in | rain 24hr in | rain mn in | humidity % | barometer mb |
| 20260503002513 | 55 | 338 | 10.4 | 15.6 | 0.00 | 0.00 | 0.00 | 39 | 979.4 |
| 20260503002012 | 55 | 355 | 9.6 | 19.1 | 0.00 | 0.00 | 0.00 | 39 | 979.4 |
| 20260503001512 | 56 | 331 | 11.3 | 19.1 | 0.00 | 0.00 | 0.00 | 39 | 979.5 |
| 20260503001012 | 57 | 15 | 12.2 | 18.2 | 0.00 | 0.00 | 0.00 | 38 | 979.5 |
| 20260503000512 | 58 | 349 | 9.6 | 16.5 | 0.00 | 0.00 | 0.00 | 40 | 979.4 |
| 20260503000021 | 58 | 360 | 9.6 | 16.5 | 0.00 | 0.00 | 0.00 | 41 | 979.4 |
| 20260502235511 | 58 | 331 | 11.3 | 19.1 | 0.00 | 0.00 | 0.00 | 41 | 979.4 |
| 20260502235011 | 58 | 346 | 10.4 | 20.9 | 0.00 | 0.00 | 0.00 | 41 | 979.4 |
| 20260502234512 | 58 | 360 | 12.2 | 20.9 | 0.00 | 0.00 | 0.00 | 40 | 979.3 |
| 20260502234011 | 59 | 303 | 12.2 | 19.1 | 0.00 | 0.00 | 0.00 | 40 | 979.3 |
| 20260502233510 | 59 | 5 | 11.3 | 19.1 | 0.00 | 0.00 | 0.00 | 40 | 979.3 |
| 20260502233011 | 59 | 349 | 13.9 | 20.9 | 0.00 | 0.00 | 0.00 | 39 | 979.2 |
| 20260502232510 | 60 | 290 | 12.2 | 20.0 | 0.00 | 0.00 | 0.00 | 37 | 979.3 |
| 20260502232010 | 60 | 355 | 10.4 | 16.5 | 0.00 | 0.00 | 0.00 | 38 | 979.1 |
| 20260502231510 | 60 | 360 | 10.4 | 16.5 | 0.00 | 0.00 | 0.00 | 37 | 979.2 |
| 20260502231010 | 60 | 344 | 10.4 | 15.6 | 0.00 | 0.00 | 0.00 | 36 | 979.1 |
| 20260502230510 | 60 | 360 | 9.6 | 15.6 | 0.00 | 0.00 | 0.00 | 35 | 979.1 |
| 20260502230011 | 60 | 5 | 10.4 | 16.5 | 0.00 | 0.00 | 0.00 | 33 | 979.1 |
| 20260502225513 | 60 | 335 | 10.4 | 16.5 | 0.00 | 0.00 | 0.00 | 33 | 979.1 |
| 20260502225013 | 60 | 360 | 9.6 | 15.6 | 0.00 | 0.00 | 0.00 | 34 | 979.1 |
| 20260502224509 | 60 | 298 | 9.6 | 14.8 | 0.00 | 0.00 | 0.00 | 33 | 979.0 |
| 20260502224012 | 60 | 340 | 10.4 | 14.8 | 0.00 | 0.00 | 0.00 | 34 | 979.1 |
| 20260502223509 | 60 | 342 | 7.8 | 15.6 | 0.00 | 0.00 | 0.00 | 35 | 979.1 |
| 20260502223024 | 60 | 348 | 10.4 | 17.4 | 0.00 | 0.00 | 0.00 | 34 | 979.1 |
| 20260502222509 | 60 | 347 | 8.7 | 13.9 | 0.00 | 0.00 | 0.00 | 34 | 978.9 |
| 20260502222009 | 60 | 347 | 9.6 | 15.6 | 0.00 | 0.00 | 0.00 | 35 | 979.1 |
| 20260502221508 | 60 | 331 | 7.0 | 15.6 | 0.00 | 0.00 | 0.00 | 35 | 978.9 |
| 20260502221008 | 61 | 336 | 9.6 | 14.8 | 0.00 | 0.00 | 0.00 | 33 | 979.0 |
| 20260502220507 | 61 | 348 | 8.7 | 13.0 | 0.00 | 0.00 | 0.00 | 35 | 978.8 |
| 20260502220007 | 61 | 360 | 8.7 | 13.0 | 0.00 | 0.00 | 0.00 | 33 | 978.9 |
| 20260502215505 | 60 | 5 | 6.1 | 13.9 | 0.00 | 0.00 | 0.00 | 36 | 978.9 |
| 20260502215008 | 60 | 343 | 8.7 | 13.9 | 0.00 | 0.00 | 0.00 | 35 | 978.8 |
| 20260502214505 | 60 | 346 | 9.6 | 13.9 | 0.00 | 0.00 | 0.00 | 36 | 979.0 |
| 20260502214008 | 59 | 360 | 9.6 | 13.9 | 0.00 | 0.00 | 0.00 | 36 | 978.9 |
| 20260502213503 | 59 | 13 | 7.8 | 13.0 | 0.00 | 0.00 | 0.00 | 37 | 978.9 |
| 20260502213003 | 59 | 298 | 7.8 | 13.9 | 0.00 | 0.00 | 0.00 | 37 | 978.9 |
| 20260502212503 | 59 | 360 | 10.4 | 13.9 | 0.00 | 0.00 | 0.00 | 36 | 978.9 |
| 20260502212002 | 59 | 346 | 8.7 | 13.0 | 0.00 | 0.00 | 0.00 | 36 | 978.9 |
| 20260502211503 | 59 | 337 | 8.7 | 14.8 | 0.00 | 0.00 | 0.00 | 38 | 978.9 |
| 20260502211000 | 59 | 350 | 8.7 | 15.6 | 0.00 | 0.00 | 0.00 | 37 | 979.0 |
| 20260502210600 | 59 | 360 | 7.8 | 15.6 | 0.00 | 0.00 | 0.00 | 38 | 978.9 |
| 20260502210125 | 59 | 360 | 9.6 | 16.5 | 0.00 | 0.00 | 0.00 | 38 | 978.9 |
| 20260502205603 | 59 | 9 | 9.6 | 16.5 | 0.00 | 0.00 | 0.00 | 38 | 978.9 |
| 20260502205058 | 59 | 349 | 9.6 | 14.8 | 0.00 | 0.00 | 0.00 | 39 | 978.8 |
| 20260502204558 | 59 | 360 | 9.6 | 14.8 | 0.00 | 0.00 | 0.00 | 38 | 978.8 |
| 20260502204057 | 59 | 342 | 9.6 | 13.0 | 0.00 | 0.00 | 0.00 | 39 | 978.7 |
| 20260502203557 | 59 | 290 | 8.7 | 14.8 | 0.00 | 0.00 | 0.00 | 39 | 978.7 |
| 20260502203055 | 59 | 298 | 9.6 | 14.8 | 0.00 | 0.00 | 0.00 | 39 | 978.7 |
| 20260502202555 | 59 | 360 | 7.0 | 13.0 | 0.00 | 0.00 | 0.00 | 41 | 978.7 |
| 20260502202102 | 59 | 301 | 8.7 | 13.9 | 0.00 | 0.00 | 0.00 | 40 | 978.7 |
| 20260502201553 | 59 | 360 | 8.7 | 13.9 | 0.00 | 0.00 | 0.00 | 39 | 978.7 |
| 20260502201053 | 58 | 355 | 7.0 | 12.2 | 0.00 | 0.00 | 0.00 | 41 | 978.8 |
| 20260502200555 | 57 | 308 | 7.8 | 13.0 | 0.00 | 0.00 | 0.00 | 41 | 978.8 |
| 20260502200112 | 57 | 360 | 7.8 | 13.0 | 0.00 | 0.00 | 0.00 | 43 | 978.8 |
| 20260502195550 | 58 | 342 | 8.7 | 13.0 | 0.00 | 0.00 | 0.00 | 43 | 978.8 |
| 20260502195051 | 58 | 302 | 7.8 | 10.4 | 0.00 | 0.00 | 0.00 | 40 | 978.7 |
| 20260502194550 | 59 | 349 | 7.0 | 10.4 | 0.00 | 0.00 | 0.00 | 41 | 978.8 |
| 20260502194050 | 59 | 360 | 5.2 | 9.6 | 0.00 | 0.00 | 0.00 | 40 | 978.7 |
| 20260502193549 | 59 | 346 | 5.2 | 9.6 | 0.00 | 0.00 | 0.00 | 39 | 978.9 |
| 20260502193051 | 59 | 348 | 3.5 | 9.6 | 0.00 | 0.00 | 0.00 | 40 | 978.8 |
| 20260502192548 | 59 | 345 | 3.5 | 8.7 | 0.00 | 0.00 | 0.00 | 39 | 978.7 |
| 20260502192048 | 59 | 45 | 3.5 | 8.7 | 0.00 | 0.00 | 0.00 | 41 | 978.6 |
| 20260502191557 | 59 | 296 | 6.1 | 9.6 | 0.00 | 0.00 | 0.00 | 39 | 978.6 |
| 20260502191053 | 59 | 346 | 5.2 | 10.4 | 0.00 | 0.00 | 0.00 | 38 | 978.7 |
| 20260502190548 | 60 | 360 | 4.3 | 8.7 | 0.00 | 0.00 | 0.00 | 38 | 978.7 |
| 20260502190050 | 60 | 5 | 3.5 | 8.7 | 0.00 | 0.00 | 0.00 | 38 | 978.7 |
| 20260502185545 | 59 | 360 | 2.6 | 9.6 | 0.00 | 0.00 | 0.00 | 39 | 978.7 |
| 20260502185044 | 58 | 9 | 4.3 | 9.6 | 0.00 | 0.00 | 0.00 | 40 | 978.7 |
| 20260502184544 | 58 | 152 | 2.6 | 7.0 | 0.00 | 0.00 | 0.00 | 40 | 978.6 |
| 20260502184045 | 57 | 146 | 1.7 | 6.1 | 0.00 | 0.00 | 0.00 | 42 | 978.4 |
| 20260502183541 | 56 | 202 | 2.6 | 6.1 | 0.00 | 0.00 | 0.00 | 41 | 978.4 |
| 20260502183039 | 56 | 134 | 3.5 | 6.1 | 0.00 | 0.00 | 0.00 | 43 | 978.3 |
| 20260502182539 | 56 | 360 | 2.6 | 6.1 | 0.00 | 0.00 | 0.00 | 42 | 978.3 |
| 20260502182037 | 56 | 360 | 2.6 | 5.2 | 0.00 | 0.00 | 0.00 | 42 | 978.4 |
| 20260502181539 | 55 | 143 | 1.7 | 3.5 | 0.00 | 0.00 | 0.00 | 40 | 978.5 |
| 20260502181037 | 55 | 360 | 0.0 | 6.1 | 0.00 | 0.00 | 0.00 | 40 | 978.6 |
| 20260502180537 | 55 | 109 | 2.6 | 6.1 | 0.00 | 0.00 | 0.00 | 41 | 978.6 |
| 20260502164031 | 55 | 142 | 2.6 | 5.2 | 0.00 | 0.00 | 0.00 | 39 | 978.5 |
| 20260502163530 | 54 | 190 | 1.7 | 4.3 | 0.00 | 0.00 | 0.00 | 41 | 978.5 |
| 20260502163029 | 54 | 128 | 0.0 | 3.5 | 0.00 | 0.00 | 0.00 | 41 | 978.7 |
| 20260502162528 | 53 | 139 | 0.9 | 6.1 | 0.00 | 0.00 | 0.00 | 41 | 978.7 |
| 20260502162028 | 53 | 125 | 3.5 | 6.1 | 0.00 | 0.00 | 0.00 | 44 | 978.5 |
| 20260502161525 | 52 | 140 | 3.5 | 7.0 | 0.00 | 0.00 | 0.00 | 45 | 978.3 |
| 20260502161024 | 52 | 82 | 4.3 | 7.8 | 0.00 | 0.00 | 0.00 | 46 | 978.4 |
| 20260502160525 | 51 | 93 | 6.1 | 7.8 | 0.00 | 0.00 | 0.00 | 47 | 978.2 |
| 20260502152012 | 49 | 360 | 2.6 | 3.5 | 0.00 | 0.00 | 0.00 | 49 | 978.8 |
| 20260502151533 | 48 | 133 | 1.7 | 3.5 | 0.00 | 0.00 | 0.00 | 49 | 978.8 |
| 20260502151011 | 48 | 128 | 1.7 | 4.3 | 0.00 | 0.00 | 0.00 | 49 | 978.7 |
| 20260502150509 | 47 | 155 | 0.0 | 6.1 | 0.00 | 0.00 | 0.00 | 48 | 978.9 |
| 20260502130543 | 39 | 132 | 2.6 | 7.8 | 0.00 | 0.00 | 0.00 | 52 | 979.3 |
| 20260502123542 | 37 | 121 | 3.5 | 7.0 | 0.00 | 0.00 | 0.00 | 53 | 979.5 |
| 20260502123043 | 36 | 114 | 3.5 | 7.0 | 0.00 | 0.00 | 0.00 | 54 | 979.5 |
| 20260502122541 | 36 | 360 | 3.5 | 7.0 | 0.00 | 0.00 | 0.00 | 54 | 979.6 |
| 20260502122041 | 35 | 127 | 3.5 | 6.1 | 0.00 | 0.00 | 0.00 | 54 | 979.6 |
| 20260502121641 | 35 | 360 | 3.5 | 7.0 | 0.00 | 0.00 | 0.00 | 54 | 979.6 |
| 20260502121039 | 35 | 114 | 3.5 | 7.8 | 0.00 | 0.00 | 0.00 | 54 | 980.0 |
| 20260502120609 | 34 | 134 | 5.2 | 7.8 | 0.00 | 0.00 | 0.00 | 54 | 980.0 |
| 20260502115538 | 34 | 108 | 4.3 | 7.8 | 0.00 | 0.00 | 0.00 | 54 | 980.0 |
| 20260502115037 | 34 | 127 | 3.5 | 7.8 | 0.00 | 0.00 | 0.00 | 55 | 980.1 |
| 20260502114538 | 33 | 113 | 4.3 | 7.0 | 0.00 | 0.00 | 0.00 | 55 | 980.2 |
| 20260502114036 | 33 | 122 | 3.5 | 6.1 | 0.00 | 0.00 | 0.00 | 55 | 980.2 |
| 20260502113536 | 32 | 128 | 3.5 | 5.2 | 0.00 | 0.00 | 0.00 | 55 | 980.3 |
| 20260502113046 | 32 | 123 | 2.6 | 5.2 | 0.00 | 0.00 | 0.00 | 56 | 980.4 |
| 20260502112534 | 31 | 128 | 3.5 | 5.2 | 0.00 | 0.00 | 0.00 | 56 | 980.5 |
| 20260502112034 | 31 | 123 | 3.5 | 5.2 | 0.00 | 0.00 | 0.00 | 56 | 980.6 |
| 20260502111535 | 31 | 138 | 2.6 | 5.2 | 0.00 | 0.00 | 0.00 | 55 | 980.7 |
| 20260502111033 | 31 | 115 | 2.6 | 5.2 | 0.00 | 0.00 | 0.00 | 55 | 980.6 |
| 20260502110531 | 32 | 124 | 3.5 | 5.2 | 0.00 | 0.00 | 0.00 | 55 | 980.8 |
| 20260502110036 | 32 | 129 | 2.6 | 7.0 | 0.00 | 0.00 | 0.00 | 55 | 980.8 |
| 20260502105533 | 31 | 132 | 3.5 | 7.0 | 0.00 | 0.00 | 0.00 | 55 | 980.9 |
| 20260502105030 | 31 | 123 | 2.6 | 5.2 | 0.00 | 0.00 | 0.00 | 55 | 980.8 |
| 20260502104530 | 31 | 128 | 3.5 | 6.1 | 0.00 | 0.00 | 0.00 | 55 | 981.0 |
| 20260502104029 | 31 | 360 | 3.5 | 6.1 | 0.00 | 0.00 | 0.00 | 55 | 981.1 |
| 20260502103528 | 31 | 127 | 3.5 | 6.1 | 0.00 | 0.00 | 0.00 | 55 | 981.1 |
| 20260502103027 | 31 | 360 | 3.5 | 6.1 | 0.00 | 0.00 | 0.00 | 57 | 981.4 |
| 20260502102526 | 31 | 109 | 2.6 | 3.5 | 0.00 | 0.00 | 0.00 | 57 | 981.3 |
| 20260502102024 | 32 | 109 | 2.6 | 3.5 | 0.00 | 0.00 | 0.00 | 57 | 981.4 |
| 20260502101525 | 32 | 134 | 1.7 | 4.3 | 0.00 | 0.00 | 0.00 | 57 | 981.5 |
| 20260502101022 | 32 | 103 | 2.6 | 5.2 | 0.00 | 0.00 | 0.00 | 57 | 981.6 |
| 20260502100520 | 32 | 125 | 2.6 | 5.2 | 0.00 | 0.00 | 0.00 | 57 | 981.8 |
| 20260502091512 | 34 | 108 | 2.6 | 5.2 | 0.00 | 0.00 | 0.00 | 55 | 982.3 |
| 20260502091011 | 34 | 360 | 3.5 | 4.3 | 0.00 | 0.00 | 0.00 | 55 | 982.4 |
| 20260502090516 | 35 | 127 | 2.6 | 5.2 | 0.00 | 0.00 | 0.00 | 55 | 982.4 |
| 20260502071054 | 37 | 123 | 3.5 | 7.8 | 0.00 | 0.00 | 0.00 | 51 | 983.8 |
| 20260502070554 | 38 | 118 | 4.3 | 7.8 | 0.00 | 0.00 | 0.00 | 51 | 983.9 |
| 20260502070109 | 37 | 107 | 3.5 | 7.8 | 0.00 | 0.00 | 0.00 | 51 | 983.9 |
| 20260502065553 | 37 | 105 | 3.5 | 7.0 | 0.00 | 0.00 | 0.00 | 51 | 984.0 |
| 20260502065051 | 38 | 111 | 4.3 | 7.8 | 0.00 | 0.00 | 0.00 | 50 | 984.2 |
| 20260502064604 | 38 | 103 | 4.3 | 7.8 | 0.00 | 0.00 | 0.00 | 51 | 984.3 |
| 20260502064050 | 37 | 105 | 4.3 | 7.8 | 0.00 | 0.00 | 0.00 | 53 | 984.3 |
| 20260502063550 | 37 | 108 | 2.6 | 5.2 | 0.00 | 0.00 | 0.00 | 53 | 984.4 |
| 20260502063053 | 37 | 117 | 2.6 | 7.0 | 0.00 | 0.00 | 0.00 | 53 | 984.6 |
| 20260502062549 | 36 | 130 | 2.6 | 4.3 | 0.00 | 0.00 | 0.00 | 54 | 984.6 |
| 20260502062048 | 36 | 115 | 2.6 | 5.2 | 0.00 | 0.00 | 0.00 | 54 | 984.7 |
| 20260502061545 | 36 | 121 | 2.6 | 5.2 | 0.00 | 0.00 | 0.00 | 53 | 984.8 |
| 20260502061045 | 36 | 130 | 1.7 | 6.1 | 0.00 | 0.00 | 0.00 | 53 | 985.0 |
| 20260502060544 | 37 | 108 | 2.6 | 6.1 | 0.00 | 0.00 | 0.00 | 52 | 985.0 |
| 20260502060044 | 36 | 133 | 2.6 | 6.1 | 0.00 | 0.00 | 0.00 | 53 | 985.1 |
| 20260502055546 | 36 | 123 | 2.6 | 5.2 | 0.00 | 0.00 | 0.00 | 54 | 985.1 |
| 20260502055045 | 36 | 128 | 2.6 | 5.2 | 0.00 | 0.00 | 0.00 | 54 | 985.2 |
| 20260502054541 | 37 | 114 | 2.6 | 5.2 | 0.00 | 0.00 | 0.00 | 53 | 985.3 |
| 20260502054042 | 37 | 128 | 1.7 | 6.1 | 0.00 | 0.00 | 0.00 | 53 | 985.4 |
| 20260502053539 | 37 | 146 | 1.7 | 6.1 | 0.00 | 0.00 | 0.00 | 53 | 985.4 |
| 20260502053039 | 37 | 115 | 3.5 | 4.3 | 0.00 | 0.00 | 0.00 | 53 | 985.4 |
| 20260502052538 | 37 | 133 | 1.7 | 6.1 | 0.00 | 0.00 | 0.00 | 53 | 985.5 |
| 20260502052038 | 37 | 128 | 2.6 | 6.1 | 0.00 | 0.00 | 0.00 | 52 | 985.5 |
| 20260502051536 | 38 | 360 | 3.5 | 6.1 | 0.00 | 0.00 | 0.00 | 51 | 985.7 |
| 20260502051035 | 38 | 114 | 2.6 | 7.0 | 0.00 | 0.00 | 0.00 | 51 | 985.7 |
| 20260502050534 | 39 | 110 | 3.5 | 6.1 | 0.00 | 0.00 | 0.00 | 50 | 985.7 |
| 20260502050039 | 39 | 134 | 3.5 | 6.1 | 0.00 | 0.00 | 0.00 | 49 | 985.8 |
| 20260502045532 | 39 | 360 | 1.7 | 5.2 | 0.00 | 0.00 | 0.00 | 50 | 985.9 |
| 20260502045031 | 39 | 116 | 2.6 | 4.3 | 0.00 | 0.00 | 0.00 | 49 | 986.0 |
| 20260502044532 | 40 | 127 | 2.6 | 5.2 | 0.00 | 0.00 | 0.00 | 48 | 986.0 |
| 20260502044031 | 40 | 143 | 2.6 | 7.0 | 0.00 | 0.00 | 0.00 | 47 | 986.1 |
| 20260502043531 | 40 | 115 | 2.6 | 7.0 | 0.00 | 0.00 | 0.00 | 47 | 986.0 |
| 20260502043130 | 40 | 145 | 2.6 | 6.1 | 0.00 | 0.00 | 0.00 | 47 | 986.2 |
| 20260502042530 | 40 | 125 | 2.6 | 6.1 | 0.00 | 0.00 | 0.00 | 47 | 986.1 |
| 20260502042034 | 40 | 134 | 1.7 | 4.3 | 0.00 | 0.00 | 0.00 | 49 | 986.3 |
| 20260502041531 | 41 | 128 | 1.7 | 6.1 | 0.00 | 0.00 | 0.00 | 47 | 986.3 |
| 20260502041030 | 41 | 126 | 2.6 | 6.1 | 0.00 | 0.00 | 0.00 | 46 | 986.3 |
| 20260502040529 | 41 | 125 | 3.5 | 6.1 | 0.00 | 0.00 | 0.00 | 45 | 986.4 |
| 20260502040030 | 41 | 134 | 2.6 | 6.1 | 0.00 | 0.00 | 0.00 | 47 | 986.4 |
| 20260502035530 | 41 | 107 | 2.6 | 6.1 | 0.00 | 0.00 | 0.00 | 47 | 986.5 |
| 20260502035029 | 41 | 115 | 2.6 | 4.3 | 0.00 | 0.00 | 0.00 | 48 | 986.4 |
| 20260502034529 | 41 | 128 | 1.7 | 4.3 | 0.00 | 0.00 | 0.00 | 49 | 986.4 |
| 20260502034028 | 41 | 126 | 2.6 | 5.2 | 0.00 | 0.00 | 0.00 | 48 | 986.5 |
| 20260502033530 | 42 | 115 | 2.6 | 6.1 | 0.00 | 0.00 | 0.00 | 47 | 986.4 |
| 20260502033031 | 43 | 116 | 2.6 | 6.1 | 0.00 | 0.00 | 0.00 | 46 | 986.4 |
| 20260502032530 | 43 | 148 | 2.6 | 6.1 | 0.00 | 0.00 | 0.00 | 46 | 986.4 |
| 20260502032028 | 44 | 138 | 2.6 | 6.1 | 0.00 | 0.00 | 0.00 | 44 | 986.4 |
| 20260502031528 | 45 | 144 | 1.7 | 5.2 | 0.00 | 0.00 | 0.00 | 43 | 986.4 |
| 20260502031028 | 46 | 122 | 2.6 | 5.2 | 0.00 | 0.00 | 0.00 | 41 | 986.4 |
| 20260502030527 | 47 | 183 | 3.5 | 6.1 | 0.00 | 0.00 | 0.00 | 40 | 986.4 |
| 20260502030028 | 48 | 141 | 3.5 | 7.0 | 0.00 | 0.00 | 0.00 | 40 | 986.3 |
| 20260502025527 | 48 | 108 | 2.6 | 7.0 | 0.00 | 0.00 | 0.00 | 40 | 986.2 |
| 20260502025027 | 48 | 121 | 3.5 | 7.0 | 0.00 | 0.00 | 0.00 | 40 | 986.3 |
| 20260502024527 | 48 | 146 | 2.6 | 7.0 | 0.00 | 0.00 | 0.00 | 40 | 986.1 |
| 20260502024030 | 48 | 119 | 2.6 | 7.0 | 0.00 | 0.00 | 0.00 | 39 | 986.2 |
| 20260502023527 | 49 | 136 | 4.3 | 7.0 | 0.00 | 0.00 | 0.00 | 39 | 986.2 |
| 20260502023027 | 49 | 123 | 2.6 | 8.7 | 0.00 | 0.00 | 0.00 | 39 | 986.2 |
| 20260502022526 | 49 | 121 | 5.2 | 8.7 | 0.00 | 0.00 | 0.00 | 39 | 986.0 |
| 20260502022026 | 48 | 98 | 3.5 | 7.0 | 0.00 | 0.00 | 0.00 | 42 | 986.1 |
| 20260502021526 | 47 | 111 | 2.6 | 5.2 | 0.00 | 0.00 | 0.00 | 44 | 986.0 |
| 20260502021027 | 48 | 101 | 3.5 | 6.1 | 0.00 | 0.00 | 0.00 | 43 | 986.0 |
| 20260502020527 | 48 | 360 | 3.5 | 6.1 | 0.00 | 0.00 | 0.00 | 43 | 986.0 |
| 20260502020026 | 48 | 98 | 3.5 | 5.2 | 0.00 | 0.00 | 0.00 | 44 | 986.0 |
| 20260502015527 | 48 | 96 | 3.5 | 5.2 | 0.00 | 0.00 | 0.00 | 44 | 986.0 |
| 20260502015028 | 48 | 99 | 2.6 | 5.2 | 0.00 | 0.00 | 0.00 | 44 | 986.1 |
| 20260502014525 | 49 | 96 | 2.6 | 5.2 | 0.00 | 0.00 | 0.00 | 44 | 986.1 |
| 20260502014025 | 50 | 92 | 2.6 | 5.2 | 0.00 | 0.00 | 0.00 | 43 | 986.1 |
| 20260502013524 | 51 | 94 | 2.6 | 5.2 | 0.00 | 0.00 | 0.00 | 42 | 986.2 |
| 20260502013025 | 52 | 92 | 2.6 | 7.8 | 0.00 | 0.00 | 0.00 | 40 | 986.2 |
| 20260502012524 | 53 | 96 | 3.5 | 7.8 | 0.00 | 0.00 | 0.00 | 36 | 986.2 |
| 20260502012024 | 53 | 99 | 3.5 | 6.1 | 0.00 | 0.00 | 0.00 | 37 | 986.2 |
| 20260502011524 | 53 | 97 | 2.6 | 6.1 | 0.00 | 0.00 | 0.00 | 39 | 986.2 |
| 20260502011023 | 54 | 97 | 2.6 | 6.1 | 0.00 | 0.00 | 0.00 | 36 | 986.2 |
| 20260502010523 | 54 | 95 | 3.5 | 5.2 | 0.00 | 0.00 | 0.00 | 37 | 986.2 |
| 20260502010023 | 55 | 98 | 3.5 | 5.2 | 0.00 | 0.00 | 0.00 | 35 | 986.2 |
| 20260502005527 | 55 | 102 | 2.6 | 5.2 | 0.00 | 0.00 | 0.00 | 35 | 986.3 |
| 20260502005022 | 56 | 99 | 2.6 | 5.2 | 0.00 | 0.00 | 0.00 | 34 | 986.3 |
| 20260502004522 | 56 | 105 | 4.3 | 7.8 | 0.00 | 0.00 | 0.00 | 33 | 986.3 |
| 20260502004021 | 56 | 98 | 3.5 | 7.8 | 0.00 | 0.00 | 0.00 | 31 | 986.3 |
| 20260502003521 | 57 | 103 | 4.3 | 7.8 | 0.00 | 0.00 | 0.00 | 32 | 986.2 |
| 20260502003021 | 57 | 105 | 5.2 | 7.0 | 0.00 | 0.00 | 0.00 | 29 | 986.4 |